Regional Weather Roundup
Issued by NWS

Home | Current Version | Previous Version | Graphics & Text | Print | Product List | Glossary On
Versions: 1 2 3 4 5 6 7 8 9 10 11 12 13 14 15 16 17 18 19 20 21 22 23 24 25 26 27 28 29
000
ASUS45 KGTF 200410
RWRMT
MONTANA HOURLY WEATHER ROUNDUP
NATIONAL WEATHER SERVICE GREAT FALLS MT
1000 PM MDT SUN APR 19 2015

NOTE: "FAIR" INDICATES FEW OR NO CLOUDS BELOW 12000 FEET WITH NO
SIGNIFICANT WEATHER AND/OR OBSTRUCTIONS TO VISIBILITY.

MTZ001>007-043-200500-
WEST OF THE DIVIDE

CITY           SKY/WX    TMP DP  RH WIND       PRES   REMARKS
KALISPELL      CLEAR     44  33  65 CALM      30.00R
MISSOULA       CLEAR     49  28  44 N9        30.02R
BUTTE          PTCLDY    44  23  43 S7        30.05S
DEER LODGE       N/A     41  25  52 NW8       30.08S
EUREKA           N/A     46  28  49 CALM      30.00S
HAMILTON         N/A     46  28  49 S1        30.01R
LIBBY            N/A     48  32  53 S3        30.00R
$$

MTZ008-052>055-200500-
SOUTHWEST MONTANA

CITY           SKY/WX    TMP DP  RH WIND       PRES   REMARKS
BOZEMAN        CLOUDY    45  26  47 W5        30.05S
DILLON         PTCLDY    45  24  43 NE9       30.02R
$$

MTZ009-010-012-014-046-048-049-054-200500-
EAST SLOPES AND CENTRAL MONTANA

CITY           SKY/WX    TMP DP  RH WIND       PRES   REMARKS
CUT BANK       CLEAR     40  18  41 E7        30.06S
GREAT FALLS    CLEAR     39  23  52 SE6       30.07S
MALMSTROM AFB  CLEAR     36  25  63 S8        30.08S WCI  30
HELENA         PTCLDY    43  24  47 W7        30.07R
$$

MTZ011-013-016-021-045-047-050-051-200500-
NORTH CENTRAL MONTANA

CITY           SKY/WX    TMP DP  RH WIND       PRES   REMARKS
HAVRE          CLEAR     35  19  52 SE5       30.08S
LEWISTOWN      CLEAR     33  21  61 S5        30.08F
CHINOOK          N/A     37  21  52 CALM      30.08F
FORT BENTON      N/A     43  21  42 E3        30.10S
$$

MTZ017>020-022>042-056>058-061-062-200500-
EASTERN PLAINS

CITY           SKY/WX    TMP DP  RH WIND       PRES   REMARKS
BAKER          PTCLDY    34  12  40 NW6       30.02S WCI  29
BILLINGS       CLOUDY    45  19  35 N3        30.09S
GLASGOW        PTCLDY    38  22  52 N8        30.05F
JORDAN           N/A     36  19  50 NW10      30.06  WCI  28
LIVINGSTON     MOCLDY    39  27  62 E8        30.07R
MILES CITY     PTCLDY    38  17  42 NW7       30.06S
SIDNEY         CLEAR     36  14  41 W9        30.01S WCI  29
WOLF POINT     CLOUDY    41  21  44 NW5       30.04S
BIG TIMBER       N/A     43  21  42 CALM      30.10S
FORSYTH          N/A     43  18  36 CALM      30.08S
PLENTYWOOD       N/A     34  14  44 N7        29.99F WCI  28
POPLAR           N/A     37  16  41 NW5       30.03F
$$

REGIONAL REPORTS...DAKOTAS

CITY           SKY/WX    TMP DP  RH WIND       PRES   REMARKS
WILLISTON      CLEAR     38  14  37 NW12      29.98F WCI  30
MINOT          MOCLDY    38  27  64 W14       29.89F WCI  30
DICKINSON      CLEAR     31  22  69 NW7       29.94F WCI  24
BEACH          FAIR      32  12  43 NW9       30.00F WCI  24
CROSBY         FAIR      30  18  59 NW10      29.97S WCI  21
WATFORD CITY   FAIR      32  19  59 CALM      29.95F
BISMARCK       CLOUDY    43  30  60 NW17G25   29.90F
GRAND FORKS    CLOUDY    37  30  75 N22G33    29.74F WCI  26
FARGO          CLOUDY    41  37  86 N12       29.73F
BUFFALO SD       N/A     36  15  42 NW14      29.93F WCI  27
RAPID CITY     CLEAR     34  21  59 NW12      29.99F WCI  25
$$

REGIONAL REPORTS...WYOMING/IDAHO/WASHINGTON

CITY           SKY/WX    TMP DP  RH WIND       PRES   REMARKS
GILLETTE       CLOUDY    32  21  64 CALM      30.05S
SHERIDAN       PTCLDY    34  19  54 W10       30.08S WCI  26
BUFFALO WY     MOCLDY    38  16  40 NW12      30.08R WCI  30
CODY           CLOUDY    39  25  56 NW6       30.09R
YELLOWSTONE LA   N/A     35  20  54 CALM      30.08S
IDAHO FALLS    CLOUDY    54  25  32 S8        29.97R
SALMON         CLEAR     50  25  37 NE7       29.97R
BOISE          CLEAR     59  29  31 N5        29.95R
SPOKANE        PTCLDY    57  31  37 SW8       29.99S
$$

REGIONAL REPORTS...ALBERTA

CITY           SKY/WX    TMP DP  RH WIND       PRES   REMARKS
EDMONTON       CLEAR     41  19  42 SE2       29.99F
CALGARY        CLEAR     45  21  39 SE8       30.03S
LETHBRIDGE     CLEAR     37  25  60 SE12      30.05S WCI  30
MEDICINE HAT   CLEAR     37  23  56 S5        30.07S
$$

REGIONAL REPORTS...SASKATCHEWAN

CITY           SKY/WX    TMP DP  RH WIND       PRES   REMARKS
SWIFT CURRENT  CLEAR     39  21  48 NW5       30.04F
REGINA         CLEAR     28  18  64 NW9       30.00F WCI  20
SASKATOON      PTCLDY    36  12  38 NE7       30.05F WCI  30
$$



USA.gov is the U.S. government's official web portal to all federal, state and local government web resources and services.